| time (UTC) | temp F | wind direction | speed knots | gust knots | rain 1hr in | rain 24hr in | rain mn in | humidity % | barometer mb |
| 20260507124543 | 50 | 252 | 4.3 | 0.0 | 0.00 | 0.00 | 0.00 | 100 | 1012.9 |
| 20260507123040 | 49 | 284 | 4.3 | 0.0 | 0.00 | 0.00 | 0.00 | 100 | 1012.9 |
| 20260507121535 | 49 | 277 | 5.2 | 0.0 | 0.00 | 0.00 | 0.00 | 100 | 1012.9 |
| 20260507120031 | 48 | 271 | 5.2 | 0.0 | 0.00 | 0.00 | 0.00 | 100 | 1012.7 |
| 20260507114526 | 48 | 292 | 4.3 | 0.0 | 0.00 | 0.00 | 0.00 | 100 | 1012.5 |
| 20260507113023 | 48 | 313 | 3.5 | 0.0 | 0.00 | 0.00 | 0.00 | 100 | 1012.5 |
| 20260507111528 | 47 | 295 | 3.5 | 0.0 | 0.00 | 0.00 | 0.00 | 100 | 1012.4 |
| 20260507110014 | 47 | 269 | 4.3 | 0.0 | 0.00 | 0.00 | 0.00 | 100 | 1012.2 |
| 20260507104510 | 47 | 290 | 4.3 | 0.0 | 0.00 | 0.00 | 0.00 | 100 | 1012.1 |
| 20260507103004 | 47 | 300 | 5.2 | 0.0 | 0.00 | 0.00 | 0.00 | 100 | 1011.9 |
| 20260507101601 | 47 | 271 | 5.2 | 0.0 | 0.00 | 0.00 | 0.00 | 100 | 1011.9 |
| 20260507100056 | 47 | 288 | 5.2 | 0.0 | 0.00 | 0.00 | 0.00 | 100 | 1011.6 |
| 20260507094552 | 48 | 286 | 6.1 | 0.0 | 0.00 | 0.00 | 0.00 | 100 | 1011.4 |
| 20260507093048 | 48 | 311 | 4.3 | 0.0 | 0.00 | 0.00 | 0.00 | 100 | 1011.4 |
| 20260507091543 | 49 | 302 | 4.3 | 0.0 | 0.00 | 0.00 | 0.00 | 100 | 1011.2 |
| 20260507090038 | 49 | 292 | 5.2 | 0.0 | 0.00 | 0.00 | 0.00 | 100 | 1011.2 |
| 20260507084537 | 49 | 171 | 0.9 | 0.0 | 0.00 | 0.00 | 0.00 | 100 | 1011.0 |
| 20260507083030 | 49 | 336 | 1.7 | 0.0 | 0.00 | 0.00 | 0.00 | 100 | 1011.3 |
| 20260507081526 | 49 | 344 | 3.5 | 0.0 | 0.00 | 0.00 | 0.00 | 100 | 1011.3 |
| 20260507080021 | 50 | 281 | 5.2 | 0.0 | 0.00 | 0.00 | 0.00 | 100 | 1011.1 |
| 20260507074517 | 50 | 284 | 5.2 | 0.0 | 0.00 | 0.00 | 0.00 | 100 | 1011.2 |
| 20260507073012 | 50 | 330 | 3.5 | 0.0 | 0.00 | 0.00 | 0.00 | 100 | 1011.2 |
| 20260507071509 | 50 | 291 | 5.2 | 0.0 | 0.00 | 0.00 | 0.00 | 100 | 1011.5 |
| 20260507070009 | 50 | 311 | 3.5 | 0.0 | 0.00 | 0.00 | 0.00 | 100 | 1011.4 |
| 20260507064559 | 50 | 294 | 6.1 | 0.0 | 0.00 | 0.00 | 0.00 | 100 | 1011.7 |
| 20260507063056 | 51 | 290 | 5.2 | 0.0 | 0.00 | 0.00 | 0.00 | 100 | 1011.4 |
| 20260507061551 | 51 | 275 | 4.3 | 0.0 | 0.00 | 0.00 | 0.00 | 100 | 1011.5 |
| 20260507060058 | 51 | 338 | 3.5 | 0.0 | 0.00 | 0.00 | 0.00 | 100 | 1011.4 |
| 20260507054548 | 51 | 300 | 2.6 | 0.0 | 0.00 | 0.00 | 0.00 | 100 | 1011.7 |
| 20260507053041 | 52 | 287 | 4.3 | 0.0 | 0.00 | 0.00 | 0.00 | 100 | 1011.3 |
| 20260507051534 | 52 | 346 | 4.3 | 0.0 | 0.00 | 0.00 | 0.00 | 100 | 1011.8 |
| 20260507050030 | 52 | 298 | 6.1 | 0.0 | 0.00 | 0.00 | 0.00 | 100 | 1011.6 |
| 20260507044544 | 52 | 294 | 5.2 | 0.0 | 0.00 | 0.00 | 0.00 | 100 | 1011.3 |
| 20260507043021 | 53 | 299 | 3.5 | 0.0 | 0.00 | 0.00 | 0.00 | 100 | 1011.4 |
| 20260507041516 | 53 | 313 | 5.2 | 0.0 | 0.00 | 0.00 | 0.00 | 100 | 1011.4 |
| 20260507040012 | 53 | 301 | 7.0 | 0.0 | 0.00 | 0.00 | 0.19 | 100 | 1011.2 |
| 20260507034507 | 54 | 322 | 5.2 | 0.0 | 0.00 | 0.00 | 0.19 | 100 | 1011.2 |
| 20260507033003 | 54 | 309 | 3.5 | 0.0 | 0.00 | 0.00 | 0.19 | 100 | 1011.2 |
| 20260507031559 | 54 | 302 | 4.3 | 0.0 | 0.00 | 0.00 | 0.19 | 100 | 1011.0 |
| 20260507030101 | 54 | 335 | 3.5 | 0.0 | 0.00 | 0.00 | 0.19 | 100 | 1010.4 |
| 20260507024555 | 54 | 334 | 2.6 | 0.0 | 0.00 | 0.00 | 0.19 | 100 | 1010.7 |
| 20260507023045 | 54 | 315 | 3.5 | 0.0 | 0.00 | 0.00 | 0.19 | 100 | 1010.6 |
| 20260507021541 | 54 | 294 | 1.7 | 0.0 | 0.00 | 0.00 | 0.19 | 100 | 1010.8 |
| 20260507020045 | 55 | 288 | 5.2 | 0.0 | 0.00 | 0.00 | 0.19 | 100 | 1010.7 |
| 20260507014535 | 55 | 315 | 7.0 | 0.0 | 0.00 | 0.00 | 0.19 | 100 | 1010.5 |
| 20260507013031 | 55 | 306 | 5.2 | 0.0 | 0.00 | 0.00 | 0.19 | 100 | 1010.9 |
| 20260507011524 | 55 | 290 | 7.0 | 0.0 | 0.00 | 0.00 | 0.19 | 100 | 1011.3 |
| 20260507010025 | 56 | 314 | 4.3 | 0.0 | 0.00 | 0.00 | 0.19 | 100 | 1011.0 |
| 20260507004515 | 56 | 308 | 5.2 | 0.0 | 0.00 | 0.00 | 0.19 | 100 | 1010.6 |
| 20260507003019 | 56 | 298 | 4.3 | 0.0 | 0.00 | 0.00 | 0.19 | 100 | 1010.4 |
| 20260507001514 | 57 | 262 | 7.0 | 0.0 | 0.00 | 0.00 | 0.19 | 100 | 1009.9 |
| 20260507000008 | 57 | 276 | 7.8 | 0.0 | 0.00 | 0.00 | 0.19 | 100 | 1009.5 |
| 20260506234600 | 58 | 299 | 7.8 | 0.0 | 0.00 | 0.00 | 0.19 | 100 | 1008.9 |
| 20260506233054 | 59 | 277 | 5.2 | 0.0 | 0.00 | 0.00 | 0.19 | 100 | 1008.7 |
| 20260506231549 | 59 | 223 | 6.1 | 0.0 | 0.00 | 0.00 | 0.19 | 100 | 1008.7 |
| 20260506230045 | 60 | 284 | 6.1 | 0.0 | 0.00 | 0.00 | 0.19 | 100 | 1008.4 |
| 20260506224554 | 61 | 266 | 6.1 | 0.0 | 0.00 | 0.00 | 0.19 | 100 | 1008.3 |
| 20260506223036 | 61 | 225 | 7.8 | 0.0 | 0.00 | 0.00 | 0.19 | 100 | 1008.1 |
| 20260506221532 | 61 | 245 | 7.8 | 0.0 | 0.00 | 0.00 | 0.19 | 100 | 1007.9 |
| 20260506220031 | 63 | 247 | 7.0 | 0.0 | 0.00 | 0.00 | 0.19 | 100 | 1007.7 |
| 20260506214523 | 63 | 253 | 7.8 | 0.0 | 0.00 | 0.00 | 0.19 | 100 | 1007.5 |
| 20260506213019 | 63 | 259 | 10.4 | 0.0 | 0.00 | 0.00 | 0.19 | 100 | 1007.2 |
| 20260506211515 | 62 | 284 | 10.4 | 0.0 | 0.00 | 0.00 | 0.19 | 100 | 1006.6 |
| 20260506210014 | 61 | 276 | 14.8 | 0.0 | 0.00 | 0.00 | 0.19 | 100 | 1006.6 |
| 20260506204506 | 63 | 289 | 9.6 | 0.0 | 0.00 | 0.00 | 0.19 | 100 | 1006.2 |
| 20260506203001 | 64 | 261 | 7.8 | 0.0 | 0.00 | 0.00 | 0.19 | 100 | 1006.1 |
| 20260506201557 | 64 | 232 | 10.4 | 0.0 | 0.00 | 0.00 | 0.19 | 100 | 1005.9 |
| 20260506200055 | 64 | 265 | 7.0 | 0.0 | 0.00 | 0.00 | 0.19 | 100 | 1005.8 |
| 20260506194600 | 63 | 265 | 8.7 | 0.0 | 0.00 | 0.00 | 0.19 | 100 | 1006.0 |
| 20260506193044 | 63 | 250 | 5.2 | 0.0 | 0.00 | 0.00 | 0.19 | 100 | 1006.0 |
| 20260506191539 | 64 | 269 | 0.0 | 0.0 | 0.00 | 0.00 | 0.19 | 100 | 1006.0 |
| 20260506190035 | 63 | 109 | 0.9 | 0.0 | 0.00 | 0.00 | 0.19 | 100 | 1005.9 |
| 20260506184532 | 62 | 340 | 3.5 | 0.0 | 0.00 | 0.00 | 0.19 | 100 | 1006.1 |
| 20260506183028 | 63 | 271 | 1.7 | 0.0 | 0.00 | 0.00 | 0.19 | 100 | 1006.0 |
| 20260506181522 | 62 | 308 | 3.5 | 0.0 | 0.00 | 0.00 | 0.19 | 100 | 1005.9 |
| 20260506180024 | 62 | 208 | 2.6 | 0.0 | 0.00 | 0.00 | 0.19 | 100 | 1006.0 |
| 20260506174513 | 61 | 217 | 2.6 | 0.0 | 0.00 | 0.00 | 0.19 | 100 | 1006.1 |
| 20260506173008 | 61 | 211 | 0.9 | 0.0 | 0.00 | 0.00 | 0.19 | 100 | 1006.1 |
| 20260506171511 | 60 | 224 | 2.6 | 0.0 | 0.00 | 0.00 | 0.19 | 100 | 1006.2 |
| 20260506170107 | 59 | 244 | 2.6 | 0.0 | 0.00 | 0.00 | 0.19 | 100 | 1006.2 |
| 20260506164601 | 59 | 196 | 2.6 | 0.0 | 0.00 | 0.00 | 0.18 | 100 | 1006.3 |
| 20260506163100 | 59 | 166 | 1.7 | 0.0 | 0.00 | 0.00 | 0.18 | 100 | 1006.3 |
| 20260506161549 | 59 | 140 | 2.6 | 0.0 | 0.00 | 0.00 | 0.18 | 100 | 1006.3 |
| 20260506160043 | 59 | 57 | 1.7 | 0.0 | 0.00 | 0.00 | 0.18 | 100 | 1006.3 |
| 20260506154537 | 59 | 38 | 1.7 | 0.0 | 0.00 | 0.00 | 0.18 | 100 | 1006.2 |
| 20260506153034 | 59 | 61 | 0.0 | 0.0 | 0.00 | 0.00 | 0.18 | 100 | 1006.1 |
| 20260506151534 | 58 | 120 | 0.9 | 0.0 | 0.00 | 0.00 | 0.18 | 100 | 1006.1 |
| 20260506150025 | 58 | 91 | 1.7 | 0.0 | 0.00 | 0.00 | 0.18 | 100 | 1005.9 |
| 20260506144520 | 57 | 71 | 2.6 | 0.0 | 0.00 | 0.00 | 0.18 | 100 | 1005.9 |
| 20260506143019 | 57 | 65 | 1.7 | 0.0 | 0.00 | 0.00 | 0.17 | 100 | 1006.1 |
| 20260506141511 | 57 | 40 | 2.6 | 0.0 | 0.00 | 0.00 | 0.17 | 100 | 1006.3 |
| 20260506140008 | 57 | 61 | 0.9 | 0.0 | 0.00 | 0.00 | 0.15 | 100 | 1006.2 |
| 20260506134502 | 57 | 84 | 0.9 | 0.0 | 0.00 | 0.00 | 0.15 | 100 | 1006.2 |
| 20260506133107 | 56 | 39 | 1.7 | 0.0 | 0.00 | 0.00 | 0.14 | 100 | 1006.2 |
| 20260506131554 | 56 | 100 | 1.7 | 0.0 | 0.00 | 0.00 | 0.13 | 100 | 1006.2 |
| 20260506130051 | 56 | 94 | 0.9 | 0.0 | 0.00 | 0.00 | 0.12 | 100 | 1006.2 |